Wind_Speed
4 4 4 5 5 5 5 5 6 7 8 9 10 12 13 14 14 14 14 16 16 17 17 18 19 20 22 23 24 24 25 25 26 26 27 27 28 29 29 29 29 29 29 28 28 27 27 27 26 24 23 22 22 23 25 26 26 27 28 27 26 24 23 22 21 20 19 19 18
4 5 5 5 5 5 5 6 7 8 9 10 12 13 14 15 15 15 16 17 18 19 20 21 21 22 23 23 23 23 23 24 24 25 25 26 27 28 29 29 30 30 30 30 30 29 29 28 27 25 23 22 22 22 24 26 27 28 28 27 26 25 24 23 22 21 20 20 19
4 4 4 4 5 5 6 7 9 10 11 13 14 15 17 17 17 17 17 19 20 21 21 21 22 22 22 22 22 22 22 22 22 23 23 24 25 26 27 29 30 30 30 31 31 31 31 30 29 26 24 23 22 22 23 24 26 27 28 27 26 25 24 23 21 20 20 20 19
4 4 4 5 5 6 7 9 10 12 13 15 17 18 19 19 19 19 20 21 21 20 20 20 21 21 22 22 22 21 21 22 22 23 23 24 24 25 26 27 28 29 30 31 31 31 32 31 30 27 25 24 24 24 24 24 25 26 27 27 27 26 25 24 22 21 21 20 19
4 4 4 5 6 7 9 10 12 14 15 17 19 20 20 20 19 19 19 19 19 18 18 19 20 21 21 21 21 21 22 22 23 23 23 24 25 25 26 26 27 28 29 30 31 31 32 31 30 28 26 26 25 25 25 26 26 26 26 26 26 26 25 23 21 20 20 20 19
4 4 5 6 7 9 10 12 14 15 17 19 20 20 20 19 19 18 17 17 17 18 18 19 20 20 21 20 21 21 22 22 23 23 23 24 25 25 26 26 27 28 29 29 30 31 31 31 30 28 27 27 27 28 29 28 27 26 26 26 26 25 25 23 22 20 20 20 20
4 5 6 7 9 11 12 14 16 17 19 19 19 19 18 18 18 17 17 17 17 17 18 18 19 19 20 20 21 21 22 22 22 23 23 23 24 24 25 25 26 27 28 29 30 30 31 31 29 27 27 26 26 27 28 29 29 28 27 26 26 25 24 24 23 22 21 21 20
4 5 7 9 11 13 14 16 17 18 18 18 18 18 17 17 17 17 17 17 17 17 17 18 19 19 20 21 21 22 22 22 22 22 22 22 22 23 23 24 25 25 26 27 28 29 30 29 28 26 26 25 25 26 28 30 31 30 30 29 27 26 26 25 25 25 24 23 23
5 6 8 11 13 14 16 17 17 17 17 17 16 16 16 16 17 17 17 17 17 18 19 19 20 20 21 21 21 21 21 21 21 21 21 21 21 22 22 22 23 23 24 24 25 26 26 26 26 26 26 25 25 25 27 28 31 32 32 31 30 28 28 27 27 27 26 26 25
6 8 10 12 14 15 16 17 17 16 15 15 15 15 16 16 16 17 17 18 20 21 21 20 21 20 20 20 20 20 20 20 20 21 21 21 22 22 23 23 23 24 24 24 24 24 24 24 25 26 27 27 27 28 28 29 30 31 32 32 31 30 30 29 29 28 27 28 28
8 10 12 13 14 15 16 15 14 13 13 13 14 15 16 16 17 18 18 20 20 21 20 20 20 20 20 20 20 20 19 20 20 21 21 22 22 23 23 23 24 24 25 25 25 24 24 24 25 26 27 27 28 28 28 28 29 31 33 33 33 32 31 30 30 29 29 29 29
10 11 13 13 14 14 14 14 13 12 13 14 15 16 17 17 18 19 19 20 20 20 20 20 19 20 20 20 20 20 20 20 20 21 22 22 23 23 23 24 24 25 25 25 25 25 25 25 26 27 28 28 28 27 28 29 29 31 32 33 33 33 33 32 31 30 30 30 29
11 12 13 13 14 13 13 13 13 13 14 15 16 17 17 18 18 19 19 19 19 20 20 20 20 20 20 20 21 21 21 21 22 22 22 23 23 24 24 24 24 25 25 25 25 25 25 26 27 27 28 29 29 29 29 30 29 30 31 33 34 34 34 34 33 32 31 31 31
11 12 12 13 13 13 13 13 14 15 16 17 17 18 18 18 18 18 19 19 20 21 21 21 20 20 20 21 21 21 22 22 22 23 23 24 24 24 24 24 24 24 24 24 24 25 25 26 27 28 29 30 30 31 31 31 31 31 32 34 35 36 36 35 35 34 33 33 33
11 12 13 14 14 15 15 15 16 16 17 17 18 18 19 19 19 19 20 20 21 21 21 21 21 21 21 21 22 22 22 22 22 23 24 24 24 24 24 24 24 24 24 25 25 25 25 27 27 28 29 30 30 31 31 32 32 33 33 34 36 36 36 36 37 37 36 36 36
12 13 15 16 16 17 17 17 17 17 17 17 18 19 19 19 20 20 21 21 21 21 21 21 22 23 23 22 22 22 22 22 23 23 24 24 24 24 24 24 24 25 25 25 25 25 26 26 27 27 28 29 30 31 31 32 32 33 34 35 36 37 37 37 38 38 38 37 38
14 16 17 18 18 18 18 18 17 17 18 18 19 19 19 20 20 21 21 22 22 22 22 23 23 23 23 23 23 23 23 23 23 23 24 24 25 25 25 25 25 25 25 26 26 26 27 27 27 27 28 29 30 31 31 32 32 32 33 34 35 36 37 38 38 38 38 38 38
16 18 18 18 18 18 18 18 18 18 19 19 20 20 21 21 22 22 23 22 22 23 24 24 24 24 24 25 24 24 23 23 24 24 25 25 25 26 26 26 26 26 26 26 26 27 27 27 27 27 28 29 29 30 31 31 32 32 33 34 34 35 36 37 37 37 37 37 38
17 18 18 18 18 18 18 18 19 19 20 20 21 22 22 23 23 23 23 24 23 23 24 25 25 25 25 25 26 25 24 24 25 25 26 26 26 26 26 26 26 26 26 26 27 27 27 27 27 27 28 28 29 30 30 31 31 32 33 33 34 35 35 36 36 36 36 37 37
18 18 18 17 18 18 18 19 19 20 21 21 22 23 24 24 24 24 24 25 25 24 25 25 26 26 26 27 27 26 26 25 25 26 26 26 26 26 26 26 27 27 27 27 27 27 28 27 27 27 27 28 28 29 30 30 31 32 33 33 34 34 35 35 35 35 36 36 36
17 17 18 18 18 18 19 19 20 20 21 22 23 24 25 25 25 25 25 26 26 25 25 25 26 27 27 27 27 27 27 26 26 26 26 26 26 26 27 27 27 28 28 28 28 28 28 27 28 27 27 28 28 29 29 30 30 31 32 32 33 33 34 34 34 35 35 35 35
17 18 18 18 18 18 19 20 20 21 21 22 23 24 25 26 27 27 27 27 27 26 26 26 26 26 27 27 27 28 28 28 27 27 26 26 26 27 27 27 27 28 28 28 28 28 28 28 28 28 28 28 28 29 29 30 30 31 31 32 32 33 33 34 34 34 34 34 34
18 18 18 18 18 19 20 20 20 21 21 22 23 24 26 27 28 28 28 28 27 27 27 26 26 27 27 28 28 28 28 28 28 28 27 26 26 27 27 26 27 28 28 28 28 27 27 27 27 27 27 27 28 28 29 29 30 30 31 31 32 32 33 33 33 34 34 33 34
18 19 19 19 19 19 20 20 20 21 22 23 24 25 26 27 28 28 29 29 28 28 28 27 27 27 28 28 28 27 27 27 28 28 27 26 27 27 27 27 27 28 28 27 26 26 25 25 25 25 25 25 26 27 27 28 29 29 30 30 31 31 32 32 33 33 33 33 34
19 19 19 19 19 20 20 20 21 22 22 23 25 25 26 27 28 28 29 29 29 29 29 28 28 27 27 27 27 26 25 25 25 26 27 27 27 27 27 27 27 27 26 26 26 26 26 26 26 26 25 25 25 25 25 26 27 28 29 29 30 30 31 31 32 33 33 34 34
19 19 19 19 20 20 21 21 22 23 24 25 25 26 26 26 27 28 28 29 29 29 29 28 28 27 27 26 26 26 25 24 25 25 26 28 28 28 27 27 27 26 25 26 26 26 27 27 28 28 28 28 27 27 27 27 27 27 28 29 30 30 31 31 31 32 32 32 33
19 19 19 20 20 21 22 22 23 24 25 25 25 26 26 27 26 27 28 28 29 29 29 28 27 26 25 25 25 25 25 25 25 26 26 27 28 28 28 27 26 26 26 26 27 27 28 28 29 29 30 29 29 28 28 28 28 29 29 30 30 31 31 32 32 32 32 32 32
19 19 20 21 21 22 23 24 24 24 25 25 26 26 27 27 27 27 27 28 28 28 28 27 26 25 24 23 23 24 25 25 25 26 26 27 27 27 27 26 26 26 27 27 28 28 29 29 30 30 31 30 30 30 29 29 29 29 30 29 30 31 31 32 32 32 32 32 32
19 20 20 21 22 23 24 24 24 25 25 26 26 27 27 27 27 28 28 28 27 27 26 26 26 25 24 24 25 26 26 26 25 26 26 27 27 27 27 27 28 28 28 29 29 30 30 31 31 31 32 32 31 30 29 28 28 28 28 28 29 30 31 31 32 31 31 31 30
20 20 21 22 23 23 24 24 24 25 25 26 26 27 27 27 27 27 27 27 27 27 26 26 25 25 25 26 26 26 26 26 26 26 26 27 27 28 28 28 29 29 30 30 30 31 31 32 32 32 32 32 32 31 30 29 29 29 29 29 29 30 31 31 32 32 32 32 31
20 20 21 22 22 23 24 24 25 25 26 26 27 27 27 27 27 27 27 26 27 27 27 26 26 26 26 26 26 26 26 27 27 26 26 26 27 28 29 29 30 30 31 31 31 32 32 32 33 33 33 33 32 31 30 30 30 30 30 30 30 30 31 31 32 32 33 33 33
20 20 21 21 22 23 24 25 25 26 26 27 27 27 27 27 27 27 27 26 26 27 27 27 27 27 27 27 26 26 27 27 27 27 27 27 28 29 30 31 31 31 31 32 32 32 32 32 33 33 33 33 32 32 31 31 31 31 31 32 32 32 32 32 32 33 33 34 34
20 20 21 21 22 23 24 25 26 26 27 27 27 27 27 27 27 27 27 26 26 26 26 26 26 26 26 26 26 27 27 28 28 28 28 28 29 30 30 31 31 31 31 32 32 32 33 33 33 33 34 33 33 32 32 32 32 31 32 32 32 32 33 33 33 34 34 34 34
20 20 21 22 23 24 25 25 26 26 27 27 27 27 27 27 27 27 27 26 26 26 26 25 25 25 25 26 26 27 27 28 28 28 28 29 29 30 31 31 31 31 32 32 33 33 34 34 34 35 35 35 34 33 32 32 32 32 32 33 33 34 34 34 34 35 35 35 34
20 20 21 22 24 25 25 25 25 26 26 26 27 27 27 27 27 27 27 27 27 26 26 25 25 25 25 26 26 27 27 28 29 29 29 29 30 30 31 32 32 33 34 34 34 35 35 35 35 36 35 35 33 32 32 31 31 32 33 33 34 35 35 35 35 35 35 35 35
19 20 21 23 24 25 25 25 25 26 26 26 26 27 27 27 27 27 26 26 26 26 26 25 25 25 26 26 27 27 27 28 28 29 29 30 30 31 31 32 33 34 35 35 35 35 35 36 36 36 35 34 32 30 30 30 30 30 31 32 33 34 35 35 36 36 36 36 36
19 20 21 22 24 25 25 25 25 25 25 26 26 27 27 27 27 27 26 25 25 25 26 25 25 26 26 27 27 28 28 28 28 29 30 30 30 31 31 32 33 35 36 36 36 36 36 36 36 36 35 33 30 29 29 28 28 28 29 31 32 33 34 34 35 35 36 36 36
19 20 21 22 23 24 25 24 24 24 25 26 26 26 27 26 26 26 26 25 24 25 25 26 26 26 27 27 28 29 29 29 29 29 30 30 30 30 30 31 33 34 35 36 36 36 36 37 37 36 35 33 30 29 28 27 27 28 28 29 30 31 31 32 32 33 34 36 37
20 21 21 22 23 24 24 24 24 24 24 25 26 26 27 26 26 26 25 24 24 24 25 26 27 27 28 28 28 29 30 30 29 29 29 30 30 30 30 31 33 34 36 37 37 37 37 38 37 37 36 34 31 29 27 26 27 27 28 28 29 30 30 30 30 31 32 34 36
21 21 22 22 22 22 23 23 23 24 24 24 25 26 26 26 26 26 25 24 23 24 25 26 27 27 28 28 28 29 30 30 30 30 29 30 30 31 31 32 33 34 35 36 37 38 37 38 37 37 36 34 31 28 26 25 25 26 26 27 27 27 28 29 29 29 31 32 34
21 22 22 22 22 21 22 22 23 24 24 24 24 25 25 25 25 25 24 24 24 24 25 25 26 27 28 28 28 28 29 30 31 31 30 30 31 31 31 31 32 33 34 36 36 37 37 37 37 37 36 34 32 28 25 23 23 24 25 26 26 26 26 27 27 28 29 30 31
Wind_Direction
35 23 14 8 5 4 4 2 357 353 348 344 341 338 335 333 330 326 322 321 318 315 312 309 307 305 305 304 303 302 300 299 298 297 296 294 293 292 291 290 289 289 289 288 288 288 288 288 287 284 279 273 267 262 257 253 251 250 249 248 246 245 244 241 241 240 239 240 243
14 6 360 356 352 349 347 345 342 340 337 333 331 329 328 326 324 321 318 317 315 313 310 308 305 304 303 302 301 299 297 296 295 295 294 293 292 292 291 290 288 287 286 286 286 285 285 285 285 282 279 275 270 265 260 255 252 250 249 248 246 246 246 245 243 241 240 241 242
359 353 350 348 344 340 336 334 331 329 327 325 323 322 322 322 320 318 316 314 312 310 308 305 303 303 302 300 299 297 296 294 293 292 291 290 290 291 290 290 289 288 286 285 284 283 282 282 281 279 276 273 270 266 262 258 254 251 250 248 247 246 246 245 243 242 243 245 243
349 346 342 339 335 331 328 325 323 321 321 319 319 319 319 319 319 317 314 312 310 308 305 303 302 302 301 301 299 297 296 294 293 291 290 289 288 288 289 289 289 288 286 285 283 281 280 279 278 276 272 269 267 265 262 259 255 252 250 248 247 246 246 246 244 244 245 246 244
341 336 330 325 323 321 320 319 320 319 318 318 318 319 319 319 318 316 313 311 307 304 302 301 301 302 303 302 300 298 297 295 294 292 290 288 288 287 287 287 287 286 286 285 283 281 280 279 277 274 269 266 264 262 260 259 256 252 249 248 247 247 246 244 243 243 245 246 247
329 324 319 316 316 317 318 318 319 320 320 319 320 320 319 318 316 314 310 306 304 302 302 302 303 304 304 303 301 299 297 296 294 292 290 288 288 287 286 285 285 285 285 284 283 281 280 279 277 273 269 265 262 260 259 258 255 252 249 248 246 245 244 243 242 243 244 246 246
312 312 313 314 316 318 320 321 321 321 321 321 321 320 318 316 314 311 307 305 304 303 304 304 304 304 303 302 300 299 297 296 294 292 290 288 287 286 284 284 283 283 283 282 281 280 279 278 276 273 269 266 262 259 257 255 252 250 247 245 244 243 242 241 242 243 245 246 246
300 305 310 316 318 321 322 323 323 323 323 321 319 318 316 314 312 310 308 306 304 304 304 304 303 303 302 301 300 299 297 296 294 291 289 287 285 284 283 282 281 280 279 279 279 278 277 276 274 272 269 266 262 259 256 253 250 247 244 242 242 241 241 241 242 245 246 246 247
301 309 314 318 321 324 325 325 325 324 322 318 316 315 313 312 310 310 308 306 305 306 306 305 305 304 303 301 299 298 296 294 292 291 288 286 284 283 281 280 279 278 277 276 275 275 274 273 271 269 267 265 262 259 256 252 248 245 242 241 241 241 241 241 242 244 246 246 247
308 315 320 323 325 326 327 326 325 322 318 314 312 311 311 311 310 309 308 308 309 309 308 306 306 304 302 300 298 296 294 292 291 289 288 286 284 282 281 280 279 278 277 276 275 274 273 271 268 266 264 263 261 260 258 254 249 244 242 242 241 241 241 241 242 243 244 245 247
313 319 323 326 327 327 327 326 322 317 312 309 309 310 311 312 312 311 311 312 311 309 307 306 305 303 301 299 297 295 293 291 290 289 287 285 284 282 281 280 279 278 277 277 276 275 274 271 268 265 263 261 260 260 258 255 251 247 245 244 244 243 243 243 243 243 244 245 247
318 323 326 328 328 328 326 322 317 312 310 310 312 314 315 314 314 314 313 312 310 308 306 306 304 302 301 298 297 295 294 291 289 288 287 286 284 283 282 280 279 278 277 276 276 275 273 271 269 266 264 262 260 258 257 255 253 251 249 248 246 246 246 245 245 245 246 247 248
322 326 328 329 329 326 322 319 316 315 315 315 316 317 317 315 315 314 313 311 309 307 306 306 304 302 300 298 297 296 294 292 291 289 288 286 285 284 283 281 280 279 277 276 275 274 272 270 268 267 265 264 262 259 257 256 254 253 251 250 249 249 248 248 248 248 248 249 250
326 328 328 328 327 324 321 319 320 320 319 319 318 318 317 315 314 313 311 309 308 307 306 305 304 302 300 298 297 295 294 293 291 290 288 287 285 284 283 282 281 279 278 277 275 273 271 270 269 268 267 265 263 261 259 257 255 254 253 252 251 251 250 250 250 250 250 251 251
327 328 329 328 327 325 324 324 323 322 320 319 317 317 316 314 313 312 311 309 308 307 306 305 304 303 301 300 298 296 295 293 292 291 289 288 286 284 283 282 281 280 279 278 276 274 272 270 269 268 267 266 265 263 261 259 257 255 254 253 252 252 252 252 252 251 251 252 252
329 329 330 329 328 327 326 325 324 321 319 317 316 315 315 313 313 312 311 310 309 308 307 305 304 304 303 302 300 298 297 295 293 292 291 289 288 286 285 284 282 281 280 279 277 275 273 271 270 269 268 267 266 264 263 261 259 257 256 255 254 253 253 253 253 252 252 252 252
331 331 331 330 329 328 326 324 321 319 317 316 315 315 314 313 312 312 311 310 309 308 307 306 305 305 304 303 302 301 299 297 295 293 291 290 289 288 287 285 283 282 281 280 278 277 275 273 271 270 268 267 266 265 264 262 261 259 258 256 255 254 254 253 253 253 252 252 251
332 332 332 330 328 325 323 321 319 317 316 315 315 314 314 313 313 312 311 310 309 308 307 307 306 305 304 304 303 302 300 298 295 293 292 290 289 288 287 285 283 283 282 280 278 277 275 274 272 270 269 267 266 265 264 263 262 261 259 258 257 256 255 254 254 253 252 252 251
333 332 330 328 325 322 320 318 317 316 315 315 315 315 314 314 313 312 311 311 310 309 308 307 307 306 305 304 303 302 300 298 296 294 292 290 289 288 286 285 284 283 282 280 278 276 275 274 272 270 268 267 266 265 264 263 262 261 260 260 259 257 256 255 254 254 253 252 251
332 330 327 324 321 319 318 317 316 315 315 315 315 315 315 314 314 313 312 311 310 310 308 307 306 306 305 305 304 302 300 298 296 294 292 291 289 288 287 286 285 284 282 280 277 276 275 273 272 270 268 266 265 264 263 263 262 261 261 260 260 259 258 257 256 255 254 253 252
329 326 323 320 318 317 316 316 315 315 315 315 315 315 315 315 315 313 312 311 311 310 309 307 306 306 305 304 303 302 300 299 296 294 292 291 289 288 287 287 285 284 282 280 278 276 274 273 271 270 268 267 265 264 263 262 261 261 260 260 260 259 259 258 257 256 255 254 253
326 323 320 318 317 316 316 315 315 315 315 315 315 315 316 316 315 314 313 312 311 310 308 307 306 305 304 303 302 300 299 298 296 294 292 291 290 289 288 287 285 283 282 279 277 276 275 273 271 269 268 266 265 263 262 261 261 260 260 260 259 259 259 259 258 257 257 256 254
323 320 318 317 316 315 315 315 315 315 315 316 316 317 316 316 315 314 314 313 311 310 309 307 305 304 303 302 300 298 297 296 296 295 293 290 290 290 289 287 285 283 282 280 278 276 275 274 272 270 268 266 265 263 262 260 260 259 259 259 259 259 258 258 258 257 257 256 255
320 318 317 316 316 316 316 316 316 316 317 317 317 317 317 316 315 314 313 312 311 309 308 306 305 303 302 301 299 297 295 294 295 295 294 292 292 291 290 288 286 284 282 280 278 276 275 274 274 272 270 268 267 265 264 261 260 259 258 258 258 258 257 257 256 256 256 255 255
317 316 316 316 316 316 316 317 317 318 318 318 318 317 316 315 315 314 312 311 310 309 308 306 304 302 301 300 299 297 295 293 293 294 295 294 294 292 291 289 287 285 283 281 279 277 276 274 274 274 273 272 271 269 268 265 263 261 260 259 259 258 258 257 256 255 254 254 254
316 315 316 316 317 317 318 318 319 319 318 318 318 317 316 314 314 313 311 310 309 308 307 305 304 303 301 299 299 298 296 295 294 294 294 295 294 293 291 289 288 286 284 282 281 280 278 276 275 274 274 274 273 272 270 269 266 264 263 262 261 260 260 259 258 256 255 254 253
316 316 316 317 318 318 319 319 319 319 319 318 317 316 315 314 312 311 309 308 307 307 306 304 304 302 300 299 298 297 297 296 296 295 294 294 294 293 292 290 288 286 285 284 283 281 280 279 278 276 275 274 273 272 271 270 269 267 266 264 263 262 261 260 260 259 258 256 254
317 317 318 319 319 319 319 320 320 319 318 318 316 315 314 313 311 309 308 307 306 305 305 304 304 302 300 299 298 297 297 296 295 294 294 294 292 292 291 289 289 287 285 285 284 283 282 280 280 278 277 276 275 274 273 272 271 269 267 265 264 262 261 260 260 260 259 258 256
318 319 319 320 319 319 319 319 319 318 317 316 315 314 313 311 310 309 308 306 305 304 304 304 304 302 300 299 298 298 297 296 295 295 295 294 293 292 290 290 289 288 286 285 284 283 282 281 280 278 277 276 275 275 274 273 272 270 268 266 264 263 262 261 260 259 259 258 257
319 320 320 319 319 319 319 318 317 316 316 315 314 313 312 311 309 308 307 306 305 304 303 302 301 300 298 298 298 298 297 297 297 296 295 294 293 292 291 290 289 288 287 286 284 283 282 281 279 278 277 275 274 273 273 272 271 270 268 266 265 263 262 262 261 260 259 259 258
320 320 319 319 318 318 317 317 316 315 315 314 313 312 311 310 308 307 306 305 304 303 302 301 300 298 297 297 298 298 297 297 297 296 294 293 293 292 292 291 289 288 287 286 285 284 282 281 280 278 277 276 274 273 271 270 269 268 267 266 265 264 263 262 261 261 260 259 258
320 319 319 318 317 317 316 316 315 315 314 313 312 311 310 308 307 306 305 304 303 303 303 302 301 299 299 299 299 298 298 297 296 295 295 293 292 292 292 291 289 288 287 286 285 284 283 282 281 279 278 277 275 273 272 270 269 268 267 266 265 263 262 261 260 260 259 259 258
319 319 318 317 316 316 316 315 315 314 314 313 312 310 309 308 306 306 305 304 304 303 302 301 300 299 300 300 299 299 298 297 296 295 294 294 293 292 291 291 290 289 288 287 286 285 284 283 282 281 279 278 276 274 272 271 269 268 267 265 264 263 262 261 260 259 258 258 257
319 318 318 317 316 316 315 315 314 314 314 312 311 310 309 308 307 306 305 305 304 303 302 300 299 298 298 298 298 297 296 296 295 295 295 295 294 293 292 291 290 289 289 288 287 287 286 284 283 281 280 278 276 274 273 271 269 267 266 265 264 263 262 261 260 259 258 257 256
318 317 317 317 316 316 315 315 314 314 313 311 310 310 309 308 307 306 305 305 305 304 301 300 299 298 298 298 297 296 295 295 296 296 295 295 294 293 291 290 290 290 290 289 288 287 286 285 283 282 281 279 277 274 272 270 268 266 265 264 263 262 261 260 259 258 257 255 254
317 317 317 317 316 316 315 314 314 314 313 311 309 309 309 308 307 306 306 305 305 304 302 301 301 301 300 299 298 297 296 296 296 296 296 295 294 293 292 291 291 292 292 290 289 288 287 286 284 283 281 279 277 274 272 270 267 266 264 263 262 261 260 259 258 257 255 254 253
317 317 317 316 316 316 315 314 314 313 312 310 310 309 308 307 307 307 307 307 306 304 303 303 302 302 301 300 299 298 297 297 296 296 296 295 294 293 292 292 292 292 293 292 291 290 289 287 286 284 282 280 277 274 272 270 268 265 264 263 262 261 260 259 257 255 254 253 251
317 318 317 316 315 314 314 313 313 312 311 310 309 309 308 307 307 307 308 308 306 304 304 303 303 302 301 300 299 299 298 297 297 296 295 295 294 293 292 292 292 292 293 293 292 292 290 289 287 285 283 280 277 275 272 270 268 266 264 263 263 261 259 257 256 255 253 252 250
317 318 317 315 314 313 313 312 311 310 310 309 308 308 308 308 307 307 307 307 305 303 303 302 301 301 300 300 300 299 299 298 297 296 295 295 294 293 293 292 292 292 292 293 293 292 291 290 288 287 285 282 279 275 272 269 267 266 264 264 263 262 260 257 256 255 253 252 250
318 318 317 315 313 312 312 311 310 309 309 308 308 308 308 307 306 306 306 306 304 303 302 301 301 300 300 300 300 299 299 299 298 297 296 295 295 294 294 292 291 291 291 293 293 292 291 290 289 289 288 284 281 277 272 269 267 265 264 263 262 261 260 258 256 254 253 252 250
319 318 317 315 313 312 311 310 310 309 309 308 307 307 307 306 306 306 306 306 305 304 302 301 301 301 301 301 300 299 299 299 299 299 298 297 296 295 294 293 291 291 291 292 292 292 291 291 290 290 289 286 282 279 274 270 268 266 264 263 262 260 260 259 257 255 253 251 250
Height
791 791 791 792 792 792 793 793 793 793 793 793 793 792 792 792 791 791 791 790 790 789 789 788 787 787 786 785 785 784 782 782 781 780 779 778 777 776 775 774 773 772 772 771 770 770 769 768 767 767 766 765 764 764 763 763 763 762 762 761 760 760 760 759 759 759 758 758 758
790 791 791 791 792 792 792 792 792 792 792 792 792 792 791 791 790 790 789 789 789 788 787 787 786 785 784 783 783 782 781 779 778 777 776 775 774 773 772 772 771 770 769 769 768 767 767 766 766 765 763 762 762 761 761 760 760 760 759 759 758 758 758 757 757 757 757 756 756
790 790 791 791 791 792 792 792 792 792 791 791 791 790 790 790 789 789 788 788 787 787 786 785 784 783 782 782 780 779 778 777 776 775 774 773 772 771 770 769 768 767 767 766 766 765 764 764 763 762 761 760 760 759 758 758 758 758 757 757 757 756 756 755 755 755 755 754 754
790 790 790 790 791 791 791 791 791 791 790 790 789 789 789 788 788 787 787 786 786 785 785 784 782 781 780 779 778 777 776 775 774 773 772 771 769 768 767 767 766 765 764 763 763 762 762 761 761 760 759 758 757 757 756 756 755 755 755 754 754 754 753 753 752 752 752 752 752
789 789 790 790 790 790 790 790 790 789 789 788 788 788 787 787 787 786 786 785 784 784 783 782 780 779 777 777 776 774 773 772 771 770 769 768 767 766 765 764 763 762 762 761 760 759 759 758 758 757 756 755 754 753 753 753 753 752 752 752 751 751 751 750 750 750 750 749 749
788 789 789 789 789 789 789 789 788 788 788 787 787 787 786 786 785 785 784 783 782 782 781 779 778 777 775 774 773 772 771 770 769 768 767 765 764 763 762 762 761 760 759 758 757 757 756 756 755 754 753 752 751 750 750 750 750 749 749 749 748 748 748 747 747 747 747 747 747
788 788 788 788 788 788 788 787 787 787 786 786 786 785 785 784 784 783 782 782 781 779 778 777 776 775 773 772 771 770 769 767 766 765 764 763 762 761 760 759 758 757 756 756 755 754 753 753 752 751 750 749 748 747 746 747 746 746 746 745 745 745 745 744 744 744 744 743 743
787 787 787 787 787 787 787 786 786 785 785 785 784 784 783 783 782 781 781 780 779 777 776 775 774 772 771 770 769 767 766 765 764 763 762 761 760 759 757 757 756 755 754 753 752 751 751 750 749 748 747 746 745 744 743 743 742 742 742 742 741 741 741 741 740 741 741 740 740
786 786 786 786 786 786 785 785 784 784 784 783 783 782 782 781 780 779 778 777 776 775 774 772 771 770 769 767 766 765 764 763 762 761 760 759 757 757 755 754 753 752 751 751 750 749 748 747 747 745 744 743 742 741 740 740 739 738 738 738 737 737 737 737 737 737 737 737 737
785 785 785 785 784 784 784 783 783 783 782 782 781 781 780 779 778 777 776 775 773 772 771 770 769 767 766 765 764 763 762 761 760 758 757 756 755 754 753 752 751 750 749 748 747 747 746 745 743 742 741 740 739 738 737 737 736 735 734 734 734 733 733 733 733 733 733 733 733
784 784 783 783 783 783 782 782 782 781 781 780 780 779 778 777 776 775 774 772 771 770 769 767 767 765 764 763 762 761 760 759 757 756 755 754 752 752 751 749 748 747 746 745 745 744 743 742 741 739 738 737 736 735 735 734 733 732 732 731 731 730 730 730 730 730 730 730 730
782 782 782 782 782 782 781 781 780 780 779 779 778 777 776 775 774 772 771 770 769 768 767 765 764 763 762 761 760 759 758 757 755 754 752 751 750 749 748 747 746 745 743 742 742 742 741 739 738 736 735 734 733 733 732 731 730 730 729 728 728 727 727 727 727 727 727 727 727
781 781 781 781 780 780 780 779 779 778 777 777 775 774 773 772 771 770 769 768 767 766 764 763 762 761 760 759 758 757 755 754 753 752 750 749 747 746 745 744 743 742 741 740 739 738 737 736 735 734 732 731 731 730 729 728 727 727 726 726 725 725 724 723 724 724 724 724 724
780 779 779 779 779 778 778 777 777 776 775 774 773 772 772 771 770 768 767 766 765 764 762 761 760 759 758 757 755 754 753 752 750 749 747 746 745 743 742 741 740 739 738 737 736 735 734 733 732 731 730 729 727 727 726 726 725 724 723 722 722 721 721 721 721 721 721 721 721
778 778 777 777 777 777 776 775 775 774 773 772 772 771 770 769 767 767 766 764 763 762 760 759 757 756 755 754 753 752 750 749 747 746 745 743 742 741 739 738 737 736 735 734 733 732 731 730 729 728 727 726 725 724 723 722 722 721 720 719 719 718 717 717 717 718 718 718 718
776 776 776 776 775 774 774 773 773 772 771 771 770 769 768 767 766 764 763 762 760 759 758 757 755 754 752 751 750 749 747 746 745 743 742 741 739 738 737 736 734 733 732 731 730 729 728 727 727 726 725 723 722 721 720 720 719 718 717 717 716 715 715 714 714 715 715 714 715
775 774 774 773 773 772 772 772 771 770 770 769 768 767 766 765 763 762 761 759 758 757 755 754 752 751 750 748 747 746 745 743 742 741 739 738 737 735 734 733 732 731 730 728 727 726 725 724 724 723 722 721 720 718 717 717 716 715 714 713 713 712 712 711 711 711 711 711 711
772 772 772 772 771 771 770 770 769 768 768 767 766 765 764 762 761 760 758 757 756 754 753 751 750 748 747 746 744 743 742 741 739 738 737 735 734 732 731 730 728 727 727 726 724 723 722 721 721 720 719 718 717 716 715 714 713 712 711 711 710 709 709 708 708 708 708 707 707
771 770 770 770 770 769 769 768 767 767 766 765 764 762 761 760 759 757 756 754 753 752 750 748 747 746 744 743 742 740 739 738 737 735 733 732 731 730 728 727 726 725 723 722 721 720 719 718 717 717 716 715 714 713 712 711 710 709 708 707 707 706 705 705 705 705 704 704 703
769 769 769 768 768 767 767 766 766 765 764 762 761 760 759 757 756 755 753 752 751 749 748 746 745 743 742 740 739 737 736 735 734 732 731 729 728 727 725 724 723 722 720 719 718 717 716 715 714 713 712 712 711 710 709 708 707 706 705 705 704 703 702 702 702 701 701 701 700
767 767 767 767 766 766 765 764 763 762 761 760 759 757 756 755 753 752 751 749 748 747 745 744 742 741 739 737 736 735 733 732 731 729 728 726 725 724 722 721 720 718 717 716 714 713 712 712 711 710 709 708 707 706 706 705 704 703 702 702 701 700 699 699 698 698 697 697 697
766 766 766 765 764 764 763 762 761 760 759 758 757 755 754 752 751 750 748 747 746 744 743 741 740 738 737 735 733 732 730 729 727 726 725 723 722 721 719 718 717 715 713 712 711 710 709 708 707 707 706 705 704 703 702 702 701 700 699 698 697 697 696 696 695 695 694 694 694
765 764 764 763 762 762 761 760 759 758 757 756 754 753 751 750 748 747 745 744 743 742 740 739 737 736 734 732 731 729 727 726 724 723 722 721 719 718 717 715 714 712 710 709 708 707 706 705 704 703 703 702 701 700 699 698 697 697 696 695 694 693 693 692 692 692 691 691 690
763 762 762 762 761 760 759 758 757 756 755 753 752 751 749 747 746 744 743 742 740 739 737 736 735 733 732 730 728 727 725 723 721 719 718 717 716 715 714 712 711 709 707 706 705 704 704 703 702 701 700 699 698 697 696 695 694 693 692 692 691 690 689 689 688 688 687 687 687
762 761 760 759 759 758 757 756 755 754 753 752 750 749 747 746 744 742 741 739 737 736 735 733 732 730 729 727 725 724 722 721 719 717 715 714 713 712 711 710 708 706 705 703 702 702 701 701 700 698 697 696 695 694 693 692 691 690 689 688 687 687 686 685 684 684 684 683 683
760 759 758 757 757 756 755 754 753 752 751 749 748 747 745 744 742 740 739 737 735 734 732 731 729 728 726 725 723 721 720 718 717 715 713 711 710 709 708 707 705 703 702 701 700 699 699 698 697 697 696 694 693 692 691 689 688 687 687 686 685 683 682 681 681 680 680 680 679
758 757 757 756 755 754 753 752 751 750 749 747 746 745 743 742 740 738 737 735 733 732 730 729 727 726 724 722 720 718 717 716 714 712 711 709 707 706 705 704 702 701 699 698 697 697 696 695 695 694 693 692 691 689 688 687 685 684 684 682 681 680 679 678 677 677 676 676 676
756 756 755 754 753 752 751 750 749 748 747 746 744 743 741 740 738 737 735 733 731 730 728 726 725 723 722 720 718 716 714 713 711 710 708 707 705 704 702 701 700 698 697 696 695 694 693 692 692 691 690 689 688 687 685 684 682 681 680 679 678 677 676 675 674 673 672 672 672
755 754 753 752 751 750 750 749 748 747 745 744 742 741 739 738 736 735 733 731 729 728 726 724 722 721 719 717 716 714 712 710 709 707 706 704 702 701 700 698 697 695 694 693 692 691 690 689 688 687 687 686 685 684 682 681 680 678 677 676 674 673 672 672 671 670 669 669 669
753 752 751 751 750 749 748 747 746 745 743 742 741 739 737 736 734 732 731 729 727 726 724 722 721 719 717 715 713 712 710 708 707 705 703 702 700 698 697 696 694 692 691 690 689 688 687 686 685 684 683 683 682 681 680 678 677 675 674 672 671 670 669 668 667 667 666 666 665
752 751 750 749 748 747 747 745 744 743 742 740 738 737 735 734 732 731 729 727 726 724 722 720 718 717 714 713 711 710 707 706 704 702 701 699 697 696 694 693 691 689 688 687 686 685 683 682 681 680 680 679 679 678 677 675 673 672 671 669 667 667 666 665 664 664 663 662 662
750 749 749 748 747 746 745 744 742 741 740 738 737 735 733 732 730 729 727 725 723 722 719 717 716 714 712 710 709 707 705 703 702 700 699 697 695 693 692 690 688 686 685 683 682 681 680 679 678 677 676 676 675 674 673 672 670 669 667 666 664 663 663 662 661 660 660 659 659
749 748 747 747 746 744 743 742 741 739 737 736 734 733 732 730 728 726 725 723 722 719 717 715 713 712 710 708 706 704 703 701 699 698 696 695 693 691 689 687 685 683 681 680 679 678 677 676 674 673 673 672 672 671 669 668 667 665 663 662 661 660 659 658 657 657 656 656 655
747 747 746 745 744 743 741 740 738 737 735 734 732 731 729 728 726 724 722 721 719 717 715 713 712 710 708 706 704 702 700 698 697 695 694 692 690 688 686 684 682 680 678 677 676 675 673 672 671 670 669 668 668 667 666 664 663 662 660 658 657 656 655 655 654 653 652 652 652
746 745 744 743 742 741 740 738 736 735 733 732 730 728 727 726 724 722 720 718 717 715 713 711 709 708 706 704 702 701 698 696 694 693 691 690 688 686 683 681 679 677 675 674 672 671 670 669 667 667 666 665 664 663 662 661 659 657 656 654 653 652 651 651 650 649 648 648 647
745 744 743 742 741 739 738 736 735 733 731 730 728 726 725 723 722 720 718 717 715 712 711 709 707 706 704 702 700 698 696 694 692 690 689 687 685 683 681 678 676 673 672 671 669 668 667 665 664 663 662 662 661 659 658 657 655 653 652 651 649 648 647 646 645 644 644 643 643
744 743 742 740 739 737 736 734 733 731 730 728 727 725 723 721 719 718 716 715 713 710 708 707 705 703 702 700 698 696 694 692 691 688 686 684 683 681 678 676 673 670 668 667 666 664 663 662 660 659 659 658 657 656 654 653 651 649 648 646 645 643 642 642 641 640 639 638 638
743 742 741 739 738 736 734 733 731 730 728 727 725 723 722 720 718 716 714 713 711 709 707 705 703 701 700 698 696 693 691 690 688 686 684 682 680 678 676 673 671 668 665 664 662 661 659 658 657 656 655 655 653 652 651 649 647 646 644 642 641 639 638 637 636 635 634 633 633
742 741 740 738 736 735 733 731 730 728 727 725 723 721 720 718 716 714 713 712 710 708 706 703 701 699 697 696 694 691 689 687 686 684 682 680 678 676 674 672 668 666 663 661 659 657 656 655 653 652 651 651 650 648 647 645 643 642 640 638 637 635 634 633 632 631 629 628 628
740 739 738 737 735 733 732 730 728 727 726 724 722 720 718 716 714 713 711 710 708 706 704 702 700 697 696 694 692 689 687 684 683 681 679 677 675 673 672 669 667 663 660 658 656 654 653 651 650 648 647 647 646 645 643 642 640 638 636 635 633 631 630 628 627 626 625 624 623
739 737 736 735 733 732 730 728 727 725 724 722 721 719 717 715 713 711 709 708 706 705 703 700 698 696 694 692 690 687 685 682 680 678 677 675 672 671 668 667 664 661 658 656 653 652 650 648 646 645 644 643 642 641 640 638 637 634 632 631 629 627 626 624 623 622 621 620 619